GW1109 Weather Reports


time (UTC)temp
F
wind
direction
speed
knots
gust
knots
rain 1hr
in
rain 24hr
in
rain mn
in
humidity
%
barometer
mb
20260508220109 54 252 7.0 14.8 0.00 0.00 0.00 30 1008.6
20260508214549 53 306 8.7 17.4 0.00 0.00 0.00 31 1008.6
20260508213046 54 298 11.3 20.9 0.00 0.00 0.00 28 1008.4
20260508211547 54 306 9.6 18.2 0.00 0.00 0.00 30 1008.4
20260508210045 54 283 6.1 13.9 0.00 0.00 0.00 33 1008.2
20260508204543 54 313 6.1 12.2 0.00 0.00 0.00 35 1008.2
20260508203048 54 275 9.6 17.4 0.00 0.00 0.00 31 1007.9
20260508201548 53 316 7.0 18.2 0.00 0.00 0.00 34 1007.9
20260508200046 54 277 7.8 15.6 0.00 0.00 0.00 34 1007.8
20260508194542 53 325 7.0 18.2 0.00 0.00 0.00 34 1007.7
20260508193047 54 309 8.7 17.4 0.00 0.00 0.00 33 1007.5
20260508191543 54 284 8.7 18.2 0.00 0.00 0.00 31 1007.7
20260508190103 54 326 5.2 16.5 0.00 0.00 0.00 35 1007.5
20260508184551 56 307 11.3 20.9 0.00 0.00 0.00 33 1007.4
20260508183048 55 266 10.4 20.0 0.00 0.00 0.00 34 1007.3
20260508181605 55 316 11.3 19.1 0.00 0.00 0.00 31 1007.3
20260508180048 54 323 8.7 16.5 0.00 0.00 0.00 31 1007.3
20260508174549 54 254 7.0 13.0 0.00 0.00 0.00 29 1007.3
20260508173046 54 290 6.1 17.4 0.00 0.00 0.00 28 1007.2
20260508171545 54 261 5.2 13.9 0.00 0.00 0.00 31 1007.2
20260508170046 54 5 4.3 18.2 0.00 0.00 0.00 29 1007.0
20260508164541 53 286 7.8 13.9 0.00 0.00 0.00 33 1007.0
20260508163048 53 308 6.1 11.3 0.00 0.00 0.00 31 1007.3
20260508161546 53 344 5.2 16.5 0.00 0.00 0.00 33 1007.4
20260508160047 53 242 7.8 14.8 0.00 0.00 0.00 31 1007.4
20260508154546 52 316 7.8 13.0 0.00 0.00 0.00 36 1007.6
20260508153044 53 254 7.8 13.0 0.00 0.00 0.00 40 1007.7
20260508151540 52 286 6.1 14.8 0.00 0.00 0.00 37 1007.6
20260508150046 53 295 8.7 16.5 0.00 0.00 0.00 40 1007.8
20260508144548 52 282 7.0 13.0 0.00 0.00 0.00 38 1007.9
20260508143051 52 311 9.6 17.4 0.00 0.00 0.00 35 1007.9
20260508141555 52 315 8.7 17.4 0.00 0.00 0.00 37 1007.9
20260508140041 52 254 7.8 14.8 0.00 0.00 0.00 40 1008.1
20260508134558 51 256 7.0 13.9 0.00 0.00 0.00 40 1008.2
20260508133045 51 279 7.8 12.2 0.00 0.00 0.00 43 1008.4
20260508131546 50 288 6.1 12.2 0.00 0.00 0.00 45 1008.5
20260508130046 50 273 6.1 10.4 0.00 0.00 0.00 47 1008.5
20260508124542 49 269 6.1 11.3 0.00 0.00 0.00 47 1008.6
20260508123058 48 259 3.5 9.6 0.00 0.00 0.00 50 1008.6
20260508121546 47 238 5.2 8.7 0.00 0.00 0.00 51 1008.6
20260508120050 46 285 3.5 7.0 0.00 0.00 0.00 52 1008.5
20260508114549 45 246 3.5 7.0 0.00 0.00 0.00 55 1008.5
20260508113045 44 286 4.3 7.8 0.00 0.00 0.00 54 1008.5
20260508111548 43 269 3.5 6.1 0.00 0.00 0.00 57 1008.4
20260508110048 41 248 1.7 3.5 0.00 0.00 0.00 61 1008.3
20260508104546 39 275 1.7 3.5 0.00 0.00 0.00 64 1008.2
20260508103047 38 271 2.6 5.2 0.00 0.00 0.00 65 1008.0
20260508101541 37 269 2.6 5.2 0.00 0.00 0.00 65 1007.9
20260508100040 38 264 0.9 3.5 0.00 0.00 0.00 63 1007.9
20260508094608 39 248 2.6 7.0 0.00 0.00 0.00 59 1007.7
20260508093046 39 284 1.7 6.1 0.00 0.00 0.00 57 1007.5
20260508091546 39 275 2.6 5.2 0.00 0.00 0.00 58 1007.4
20260508090049 41 275 1.7 6.1 0.00 0.00 0.00 55 1007.3
20260508084542 40 274 2.6 6.1 0.00 0.00 0.00 54 1007.0
20260508083048 40 309 2.6 5.2 0.00 0.00 0.00 55 1006.8
20260508081609 41 309 2.6 7.0 0.00 0.00 0.00 54 1006.7
20260508080041 41 300 3.5 7.0 0.00 0.00 0.00 53 1006.6
20260508074541 41 284 3.5 7.0 0.00 0.00 0.00 54 1006.6
20260508073047 40 312 1.7 3.5 0.00 0.00 0.00 57 1006.5
20260508071549 41 304 1.7 5.2 0.00 0.00 0.00 57 1006.5
20260508070048 40 297 2.6 4.3 0.00 0.00 0.00 58 1006.5
20260508064542 41 302 1.7 3.5 0.00 0.00 0.00 58 1006.5
20260508063055 42 296 2.6 6.1 0.00 0.00 0.00 52 1006.7
20260508061552 43 301 2.6 6.1 0.00 0.00 0.00 51 1006.8
20260508060053 43 311 2.6 7.0 0.00 0.00 0.00 50 1007.0
20260508054545 42 307 3.5 7.0 0.00 0.00 0.00 53 1007.1
20260508053044 43 323 0.9 3.5 0.00 0.00 0.00 48 1007.2
20260508051542 44 326 1.7 7.0 0.00 0.00 0.00 46 1007.3
20260508050048 44 314 2.6 7.8 0.00 0.00 0.00 46 1007.3
20260508044547 44 300 2.6 5.2 0.00 0.00 0.00 47 1007.4
20260508043051 44 319 3.5 7.0 0.00 0.00 0.00 47 1007.4
20260508041541 45 329 4.3 7.8 0.00 0.00 0.00 49 1007.3
20260508040050 46 309 2.6 6.1 0.00 0.00 0.00 47 1007.3
20260508034548 46 318 3.5 7.8 0.00 0.05 0.00 47 1007.5
20260508033049 46 304 5.2 7.8 0.00 0.05 0.00 47 1007.3
20260508031546 47 332 2.6 7.8 0.00 0.05 0.00 45 1007.5
20260508030045 47 301 4.3 8.7 0.00 0.05 0.00 45 1007.4
20260508024548 47 302 4.3 7.8 0.00 0.07 0.00 46 1007.5
20260508023049 47 306 2.6 4.3 0.00 0.07 0.00 47 1007.5
20260508021539 48 0 0.0 3.5 0.00 0.07 0.00 45 1007.3
20260508020047 48 336 2.6 5.2 0.00 0.07 0.00 44 1007.0
20260508014550 48 351 0.9 4.3 0.00 0.07 0.00 43 1006.8
20260508013049 49 296 1.7 4.3 0.00 0.07 0.00 40 1006.6
20260508011542 50 284 0.9 3.5 0.00 0.07 0.00 38 1006.5
20260508010047 51 283 2.6 7.8 0.00 0.07 0.00 37 1006.2
20260508004548 51 271 4.3 8.7 0.00 0.07 0.00 36 1005.9
20260508003047 52 290 3.5 7.0 0.00 0.07 0.00 35 1005.8
20260508001546 52 296 2.6 7.8 0.00 0.07 0.00 34 1005.6
20260508000050 52 303 2.6 7.0 0.00 0.07 0.00 34 1005.3
20260507234541 53 288 3.5 7.8 0.00 0.07 0.00 33 1005.2
20260507233045 54 300 3.5 9.6 0.00 0.07 0.00 31 1005.2
20260507231553 55 297 7.8 13.0 0.00 0.07 0.00 30 1005.0
20260507230051 56 268 4.3 9.6 0.00 0.07 0.00 30 1004.8
20260507224550 56 298 6.1 12.2 0.00 0.07 0.00 30 1004.7
20260507223046 57 308 9.6 14.8 0.00 0.07 0.00 28 1004.5
20260507221541 56 309 7.0 13.9 0.00 0.07 0.00 29 1004.6